Location: Newark
(12.4436°N, 0.6167°W)
Time: 03:33:37
(UTC+00:00)

Vanguard 1 - Pass Details

Date: 11 December 2019
Orbit: 650 x 3833 km, 34.2° (Epoch: 27 January)

Event Time Altitude Azimuth Distance (km) Brightness Sun altitude
Rises 03:05:06 0° 249° (WSW) 6,891 - -43.8°
Reaches altitude 10° 03:09:16 10° 252° (WSW) 6,181 - -42.9°
Exits shadow 03:26:37 58° 295° (WNW) 4,188 12.7 -38.9°
Maximum altitude 03:30:50 64° 330° (NNW) 4,093 12.7 -37.9°
Drops below altitude 10° 03:52:39 10° 51° (NE) 6,188 14.4 -32.9°
Sets 03:56:53 0° 54° (NE) 6,894 14.8 -31.9°
